Regional Weather Roundup
Issued by NWS

Home | Current Version | Previous Version | Text Only | Print | Product List | Glossary Off
Versions: 1 2 3 4 5 6 7 8 9 10 11 12 13 14 15 16 17 18 19 20 21 22 23 24 25 26 27 28 29 30 31 32 33 34 35 36 37 38 39 40 41 42 43 44 45 46 47 48 49 50

000
ASUS44 KOUN 222010
RWROK

WEATHER ROUNDUP FOR OKLAHOMA
NATIONAL WEATHER SERVICE NORMAN OK
200 PM CST SAT NOV 22 2014

NOTE: "FAIR" INDICATES FEW OR NO CLOUDS BELOW 12,000 FEET WITH NO
      SIGNIFICANT WEATHER AND/OR OBSTRUCTIONS TO VISIBILITY.

OKZ001>007-009>012-014-015-017-222100-
NORTHWEST OKLAHOMA AND THE PANHANDLE

CITY           SKY/WX    TMP DP  RH WIND       PRES   REMARKS
GAGE           SUNNY     68  51  54 S18G25    29.75F
ENID/WOODRING  PTSUNNY   61  55  82 S20G26    29.82F
$$

OKZ016-021>023-033>039-044-045-222100-
SOUTHWEST OKLAHOMA

CITY           SKY/WX    TMP DP  RH WIND       PRES   REMARKS
LAWTON/REGL    RAIN      57  54  89 E17       29.84F FOG
LAWTON/FT SILL RAIN      55  55 100 E15       29.84F FOG
FREDERICK      CLOUDY    56  54  93 E20       29.82R
CLINTON        FOG       55  54  96 SE15      29.84F VSB<1/4
HOBART         CLOUDY    55  54  96 SE18      29.84F
ALTUS AFB      CLOUDY    56  56 100 E17       29.86S
$$

OKZ018>020-024>031-222100-
CENTRAL OKLAHOMA

CITY           SKY/WX    TMP DP  RH WIND       PRES   REMARKS
OKLAHOMA CITY  LGT RAIN  56  54  93 S20       29.86F FOG
OKC/WILEY POST CLOUDY    56  54  93 S16       29.84F
OKC/TINKER AFB LGT RAIN  54  54 100 SE14G20   29.86F
STILLWATER     CLOUDY    58  54  86 S13       29.85F
GUTHRIE        CLOUDY    56  54  93 S10       29.84F
$$

OKZ008-013-054>072-222100-
NORTHEAST OKLAHOMA

CITY           SKY/WX    TMP DP  RH WIND       PRES   REMARKS
TULSA          LGT RAIN  57  54  89 W12G20    29.88F
TULSA/JONES    LGT RAIN  56  53  90 S20G32    29.83F
PONCA CITY     CLOUDY    61  53  75 S10G18    29.83F
BARTLESVILLE   CLOUDY    58  53  84 S17G23    29.88F
MUSKOGEE       RAIN      53  52  96 S13       29.97F FOG
$$

OKZ032-040>043-046>053-073>077-222100-
SOUTH CENTRAL/SOUTHEAST OKLAHOMA

CITY           SKY/WX    TMP DP  RH WIND       PRES   REMARKS
ARDMORE/DWNTWN RAIN      55  54  94 E8G21     29.90F
MCALESTER      RAIN      55  54  96 SE7       29.97F FOG
$$



USA.gov is the U.S. government's official web portal to all federal, state and local government web resources and services.